This demonstration page uses our WeatherBlox Daily Observations layout. Learn more.

Left ArrowRight Arrow

39.01783, -85.05884

Hourly Observations for April 23, 2018

Temp ( °F °C ) Dew Point ( °F °C ) Humidity (%) Winds ( mph kmh ) Pressure ( in mb ) Visibility ( mi km ) Precip ( " mm )
12:52 am 00:52 Mostly Cloudy 56 13.3 31 -0.6 39 39 E 13 20 30.11 1020 10 16 N/A
1:52 am 01:52 Mostly Cloudy 57 13.9 30 -1.1 36 36 ENE 12 19 30.09 1019 10 16 N/A
2:52 am 02:52 Mostly Cloudy 56 13.3 30 -1.1 37 37 ENE 12 19 30.07 1018 10 16 N/A
3:52 am 03:52 Cloudy 56 13.3 31 -0.6 39 39 ENE 12 19 30.06 1018 10 16 N/A
4:52 am 04:52 Cloudy 55 12.8 32 undefined 42 42 E 9 15 30.06 1018 10 16 N/A
5:52 am 05:52 Cloudy 54 12.2 33 0.6 45 45 E 7 11 30.06 1018 10 16 N/A
6:52 am 06:52 Mostly Cloudy 54 12.2 35 1.7 49 49 E 8 13 30.07 1018 10 16 N/A
7:52 am 07:52 Cloudy 55 12.8 37 2.8 51 51 E 6 9 30.09 1019 10 16 N/A
8:52 am 08:52 Cloudy 56 13.3 39 3.9 53 53 E 7 11 30.10 1019 10 16 N/A
9:52 am 09:52 Cloudy with Light Rain 57 13.9 44 6.7 62 62 E 8 13 30.09 1019 10 16 N/A
10:34 am 10:34 Cloudy with Rain 54 12.2 48 8.9 80 80 ESE 7 11 30.12 1020 3 5 0.02 0.51
10:52 am 10:52 Cloudy with Rain 54 12.2 49 9.4 83 83 E 9 15 30.11 1020 3 5 0.09 2.29
11:52 am 11:52 Cloudy with Rain 54 12.2 50 10 87 87 ESE 13 20 30.11 1020 4 6 0.08 2.03
12:52 pm 12:52 Cloudy with Light Rain 54 12.2 52 11.1 93 93 ESE 12 19 30.11 1020 4 6 0.08 2.03
1:49 pm 13:49 Cloudy with Light Rain 54 12 54 12 100 100 E 12 19 30.12 1020 4 6 0.13 3.30
1:52 pm 13:52 Cloudy with Light Rain 54 12.2 53 11.7 97 97 ESE 13 20 30.10 1019 5 8 0.13 3.30
2:26 pm 14:26 Cloudy with Light Rain 56 13.3 54 12.2 93 93 ESE 15 24 30.12 1020 2 3 N/A
2:36 pm 14:36 Cloudy with Light Rain 56 13.3 53 11.7 90 90 ESE 14 22 30.12 1020 2 3 0.01 0.25
2:52 pm 14:52 Cloudy with Light Rain 56 13.3 54 12.2 93 93 ESE 15 24 30.09 1019 3 5 0.02 0.51
3:27 pm 15:27 Cloudy with Light Rain 56 13.3 53 11.7 90 90 ESE 13 20 30.09 1019 9 14 0.01 0.25
3:52 pm 15:52 Cloudy with Light Rain 56 13.3 53 11.7 90 90 ESE 15 24 30.08 1019 9 14 0.01 0.25
4:52 pm 16:52 Cloudy with Light Rain 56 13.3 52 11.1 87 87 ESE 20 31 30.06 1018 4 6 N/A
5:22 pm 17:22 Cloudy with Light Rain 55 12.8 52 11.1 90 90 ESE 14 22 30.06 1018 5 8 0.03 0.76
5:52 pm 17:52 Cloudy 55 12.8 52 11.1 90 90 E 14 22 30.06 1018 10 16 0.03 0.76
6:00 pm 18:00 Cloudy 55 12.8 51 10.6 87 87 E 15 24 30.06 1018 10 16 N/A
6:52 pm 18:52 Cloudy with Light Rain 54 12.2 51 10.6 90 90 E 14 22 30.05 1018 6 10 N/A
7:15 pm 19:15 Cloudy with Light Rain 54 12.2 51 10.6 90 90 E 15 24 30.06 1018 9 14 0.01 0.25
7:52 pm 19:52 Cloudy 54 12.2 51 10.6 90 90 E 14 22 30.04 1017 10 16 0.01 0.25
8:52 pm 20:52 Cloudy 54 12.2 50 10 87 87 E 13 20 30.05 1018 10 16 N/A
9:22 pm 21:22 Cloudy 53 11.7 50 10 89 89 E 10 17 30.06 1018 10 16 N/A
9:41 pm 21:41 Cloudy 53 11.7 50 10 89 89 E 10 17 30.06 1018 10 16 N/A
9:52 pm 21:52 Cloudy 53 11.7 49 9.4 86 86 E 13 20 30.04 1017 10 16 N/A
10:52 pm 22:52 Cloudy 53 11.7 49 9.4 86 86 E 10 17 30.03 1017 10 16 N/A
11:52 pm 23:52 Cloudy 53 11.7 49 9.4 86 86 ENE 10 17 30.02 1017 10 16 N/A

Powered by AerisWeather